AVA30 SKRG-KMIA

Flight info

Callsign AVA30
Flight time 3h 1m
Altitude 34000
Route BUTAL3A BUTAL UP778 CTG/N0459F360 UM779 ZEUSS VIICE2
Aircraft A320/M-SDE3FGHIRWY/LB1

Departure

Time 2026-05-05 22:58
Airport Jose Maria Córdova International Airport (SKRG)

Arrival

Time 2026-05-06 02:00
Airport Miami International Airport (KMIA)
Time Latitude Longitude Altitude Speed Heading
2026-05-05 22:47 6.17293 -75.42770 6993 ft 0 kts 211°
2026-05-05 22:48 6.17294 -75.42770 6993 ft 0 kts 211°
2026-05-05 22:48 6.17303 -75.42763 6993 ft 2 kts 211°
2026-05-05 22:48 6.17316 -75.42756 6992 ft 2 kts 211°
2026-05-05 22:48 6.17325 -75.42750 6991 ft 2 kts 211°
2026-05-05 22:49 6.17339 -75.42746 6990 ft 2 kts 182°
2026-05-05 22:49 6.17354 -75.42748 6990 ft 2 kts 160°
2026-05-05 22:49 6.17368 -75.42754 6991 ft 2 kts 136°
2026-05-05 22:49 6.17375 -75.42764 6991 ft 0 kts 118°
2026-05-05 22:50 6.17374 -75.42763 6991 ft 2 kts 119°
2026-05-05 22:50 6.17363 -75.42741 6990 ft 2 kts 122°
2026-05-05 22:50 6.17361 -75.42738 6990 ft 0 kts 123°
2026-05-05 22:52 6.17354 -75.42728 6988 ft 3 kts 122°
2026-05-05 22:52 6.17347 -75.42709 6988 ft 2 kts 102°
2026-05-05 22:52 6.17342 -75.42683 6988 ft 5 kts 100°
2026-05-05 22:52 6.17352 -75.42636 6987 ft 8 kts 49°
2026-05-05 22:53 6.17411 -75.42593 6986 ft 11 kts 34°
2026-05-05 22:53 6.17481 -75.42546 6986 ft 12 kts 34°
2026-05-05 22:53 6.17553 -75.42500 6988 ft 11 kts 25°
2026-05-05 22:53 6.17630 -75.42491 6989 ft 10 kts
2026-05-05 22:54 6.17701 -75.42490 6992 ft 9 kts
2026-05-05 22:54 6.17762 -75.42490 6994 ft 8 kts
2026-05-05 22:54 6.17817 -75.42490 6995 ft 7 kts 360°
2026-05-05 22:54 6.17839 -75.42490 6996 ft 8 kts 360°
2026-05-05 22:55 6.17848 -75.42490 6996 ft 8 kts 360°
2026-05-05 22:55 6.17910 -75.42491 6997 ft 8 kts 359°
2026-05-05 22:55 6.17965 -75.42492 6998 ft 7 kts 359°
2026-05-05 22:55 6.18010 -75.42475 6999 ft 6 kts 51°
2026-05-05 22:56 6.18019 -75.42439 6999 ft 0 kts 88°
2026-05-05 22:56 6.18020 -75.42397 7000 ft 7 kts 88°
2026-05-05 22:56 6.18019 -75.42348 7001 ft 6 kts 105°
2026-05-05 22:57 6.17986 -75.42323 7001 ft 6 kts 170°
2026-05-05 22:57 6.17870 -75.42321 6999 ft 40 kts 179°
2026-05-05 22:57 6.17348 -75.42316 6991 ft 107 kts 179°
2026-05-05 22:57 6.16379 -75.42310 6966 ft 166 kts 179°
2026-05-05 22:58 6.15092 -75.42303 7171 ft 195 kts 178°
2026-05-05 22:58 6.13706 -75.42278 7825 ft 197 kts 178°
2026-05-05 22:58 6.12339 -75.42275 8587 ft 193 kts 178°
2026-05-05 22:58 6.11005 -75.42225 9086 ft 189 kts 168°
2026-05-05 22:59 6.09719 -75.41833 9297 ft 196 kts 154°
2026-05-05 22:59 6.08536 -75.41111 9552 ft 202 kts 142°
2026-05-05 22:59 6.07433 -75.40221 9817 ft 208 kts 137°
2026-05-05 22:59 6.06454 -75.39077 10039 ft 218 kts 121°
2026-05-05 23:00 6.06291 -75.36168 10589 ft 235 kts 46°
2026-05-05 23:00 6.07825 -75.35471 10801 ft 249 kts 16°
2026-05-05 23:00 6.09569 -75.35084 11000 ft 265 kts 12°
2026-05-05 23:01 6.11462 -75.34837 11246 ft 280 kts
2026-05-05 23:01 6.13498 -75.34724 11495 ft 295 kts
2026-05-05 23:01 6.15588 -75.34694 11727 ft 310 kts
2026-05-05 23:01 6.17815 -75.34709 11961 ft 324 kts
2026-05-05 23:02 6.20131 -75.34750 12194 ft 337 kts
2026-05-05 23:02 6.22513 -75.34802 12515 ft 347 kts
2026-05-05 23:02 6.24935 -75.34863 13024 ft 349 kts
2026-05-05 23:02 6.27386 -75.34924 13537 ft 351 kts
2026-05-05 23:03 6.29838 -75.34982 14032 ft 353 kts
2026-05-05 23:03 6.32308 -75.35043 14516 ft 356 kts
2026-05-05 23:03 6.34783 -75.35162 15031 ft 358 kts 359°
2026-05-05 23:03 6.37289 -75.35304 15484 ft 361 kts 359°
2026-05-05 23:04 6.39841 -75.35455 15916 ft 364 kts 359°
2026-05-05 23:04 6.42389 -75.35603 16334 ft 367 kts 359°
2026-05-05 23:04 6.44950 -75.35754 16804 ft 369 kts 359°
2026-05-05 23:04 6.47536 -75.35904 17230 ft 372 kts 359°
2026-05-05 23:05 6.50123 -75.36051 17628 ft 374 kts 359°
2026-05-05 23:05 6.52720 -75.36200 18032 ft 377 kts 359°
2026-05-05 23:05 6.55368 -75.36352 18440 ft 378 kts 358°
2026-05-05 23:05 6.58029 -75.36506 18840 ft 380 kts 358°
2026-05-05 23:06 6.60666 -75.36658 19224 ft 381 kts 358°
2026-05-05 23:06 6.63327 -75.36812 19594 ft 383 kts 358°
2026-05-05 23:06 6.65981 -75.36966 19951 ft 385 kts 358°
2026-05-05 23:06 6.68686 -75.37122 20304 ft 387 kts 358°
2026-05-05 23:07 6.71378 -75.37278 20648 ft 389 kts 358°
2026-05-05 23:07 6.74104 -75.37436 21000 ft 390 kts 358°
2026-05-05 23:07 6.76842 -75.37595 21342 ft 392 kts 358°
2026-05-05 23:07 6.79556 -75.37753 21674 ft 393 kts 358°
2026-05-05 23:08 6.82309 -75.37912 22001 ft 395 kts 358°
2026-05-05 23:08 6.85052 -75.38071 22326 ft 396 kts 358°
2026-05-05 23:08 6.87872 -75.38237 22669 ft 397 kts 358°
2026-05-05 23:08 6.90653 -75.38399 22989 ft 398 kts 358°
2026-05-05 23:09 6.93429 -75.38561 23286 ft 401 kts 358°
2026-05-05 23:09 6.96244 -75.38726 23588 ft 402 kts 358°
2026-05-05 23:09 6.99317 -75.38905 23927 ft 404 kts 358°
2026-05-05 23:09 7.02383 -75.39084 24252 ft 407 kts 357°
2026-05-05 23:10 7.05197 -75.39288 24543 ft 408 kts 356°
2026-05-05 23:10 7.08067 -75.39518 24834 ft 410 kts 356°
2026-05-05 23:10 7.10947 -75.39751 25119 ft 412 kts 356°
2026-05-05 23:10 7.13824 -75.39984 25403 ft 414 kts 356°
2026-05-05 23:11 7.16707 -75.40208 25697 ft 415 kts 356°
2026-05-05 23:11 7.19609 -75.40440 25967 ft 416 kts 356°
2026-05-05 23:11 7.22496 -75.40676 26214 ft 418 kts 356°
2026-05-05 23:11 7.25442 -75.40915 26474 ft 420 kts 356°
2026-05-05 23:12 7.28361 -75.41149 26708 ft 422 kts 356°
2026-05-05 23:12 7.31280 -75.41383 26941 ft 424 kts 356°
2026-05-05 23:12 7.34241 -75.41621 27186 ft 425 kts 356°
2026-05-05 23:12 7.37232 -75.41860 27421 ft 427 kts 356°
2026-05-05 23:13 7.40182 -75.42095 27653 ft 428 kts 356°
2026-05-05 23:13 7.43174 -75.42334 27882 ft 430 kts 356°
2026-05-05 23:13 7.46164 -75.42572 28096 ft 432 kts 356°
2026-05-05 23:13 7.49165 -75.42812 28308 ft 433 kts 356°
2026-05-05 23:14 7.52201 -75.43054 28522 ft 435 kts 356°
2026-05-05 23:14 7.55216 -75.43295 28736 ft 436 kts 356°
2026-05-05 23:14 7.58235 -75.43536 28948 ft 437 kts 356°
2026-05-05 23:14 7.61294 -75.43780 29153 ft 439 kts 356°
2026-05-05 23:15 7.64345 -75.44024 29358 ft 440 kts 356°
2026-05-05 23:15 7.67413 -75.44270 29561 ft 442 kts 356°
2026-05-05 23:15 7.70624 -75.44527 29771 ft 443 kts 356°
2026-05-05 23:15 7.73724 -75.44775 29972 ft 444 kts 356°
2026-05-05 23:16 7.76797 -75.45020 30162 ft 445 kts 356°
2026-05-05 23:16 7.79899 -75.45268 30361 ft 446 kts 356°
2026-05-05 23:16 7.82996 -75.45516 30543 ft 448 kts 356°
2026-05-05 23:16 7.86141 -75.45715 30732 ft 448 kts 359°
2026-05-05 23:17 7.89248 -75.45795 30915 ft 449 kts 359°
2026-05-05 23:17 7.92380 -75.45860 31090 ft 450 kts 359°
2026-05-05 23:17 7.95528 -75.45920 31259 ft 451 kts 359°
2026-05-05 23:17 7.98670 -75.45977 31430 ft 452 kts 359°
2026-05-05 23:18 8.01892 -75.45995 31789 ft 448 kts 359°
2026-05-05 23:18 8.04999 -75.46043 32033 ft 447 kts 358°
2026-05-05 23:18 8.08103 -75.46106 32217 ft 447 kts 358°
2026-05-05 23:18 8.11290 -75.46201 32375 ft 449 kts 359°
2026-05-05 23:19 8.14469 -75.46291 32568 ft 449 kts 359°
2026-05-05 23:19 8.17587 -75.46370 32813 ft 448 kts 359°
2026-05-05 23:19 8.20709 -75.46442 33051 ft 448 kts 359°
2026-05-05 23:19 8.23850 -75.46511 33299 ft 447 kts 359°
2026-05-05 23:20 8.26959 -75.46577 33555 ft 446 kts 359°
2026-05-05 23:20 8.30049 -75.46642 33802 ft 445 kts 359°
2026-05-05 23:20 8.36433 -75.46775 33854 ft 444 kts 359°
2026-05-05 23:21 8.42657 -75.46905 33852 ft 444 kts 359°
2026-05-05 23:21 8.48860 -75.47034 33852 ft 444 kts 359°
2026-05-05 23:22 8.55025 -75.47161 33847 ft 444 kts 359°
2026-05-05 23:22 8.61215 -75.47289 33851 ft 444 kts 359°
2026-05-05 23:23 8.67416 -75.47417 33849 ft 444 kts 359°
2026-05-05 23:23 8.73610 -75.47546 33848 ft 444 kts 359°
2026-05-05 23:24 8.79796 -75.47674 33845 ft 443 kts 359°
2026-05-05 23:24 8.85977 -75.47802 33843 ft 443 kts 359°
2026-05-05 23:25 8.92178 -75.47930 33837 ft 443 kts 359°
2026-05-05 23:25 8.98563 -75.48063 33834 ft 443 kts 358°
2026-05-05 23:26 9.04865 -75.48193 33834 ft 444 kts 358°
2026-05-05 23:26 9.11224 -75.48325 33836 ft 443 kts 358°
2026-05-05 23:27 9.17633 -75.48459 33839 ft 443 kts 358°
2026-05-05 23:27 9.24754 -75.48607 33846 ft 442 kts 358°
2026-05-05 23:28 9.31897 -75.48756 33850 ft 442 kts 358°
2026-05-05 23:28 9.38491 -75.48891 33846 ft 443 kts 358°
2026-05-05 23:29 9.44664 -75.49020 33846 ft 443 kts 358°
2026-05-05 23:29 9.50817 -75.49148 33848 ft 443 kts 358°
2026-05-05 23:30 9.57448 -75.49286 33852 ft 442 kts 358°
2026-05-05 23:30 9.64378 -75.49430 33856 ft 442 kts 358°
2026-05-05 23:31 9.70949 -75.49567 33856 ft 442 kts 358°
2026-05-05 23:31 9.77410 -75.49701 33855 ft 442 kts 358°
2026-05-05 23:32 9.83581 -75.49830 33855 ft 442 kts 358°
2026-05-05 23:32 9.89748 -75.49959 33857 ft 441 kts 358°
2026-05-05 23:33 9.95876 -75.50086 33852 ft 441 kts 358°
2026-05-05 23:33 10.02062 -75.50214 33850 ft 443 kts 358°
2026-05-05 23:34 10.08438 -75.50347 33845 ft 442 kts 358°
2026-05-05 23:34 10.14609 -75.50485 33841 ft 442 kts 357°
2026-05-05 23:35 10.20774 -75.51059 33846 ft 444 kts 351°
2026-05-05 23:35 10.27245 -75.52430 33849 ft 453 kts 344°
2026-05-05 23:36 10.33583 -75.54236 33848 ft 459 kts 343°
2026-05-05 23:36 10.39766 -75.56018 33848 ft 461 kts 343°
2026-05-05 23:37 10.46059 -75.57828 33852 ft 461 kts 343°
2026-05-05 23:37 10.52272 -75.59614 33856 ft 461 kts 343°
2026-05-05 23:38 10.58473 -75.61397 33855 ft 460 kts 343°
2026-05-05 23:38 10.61559 -75.62283 33854 ft 460 kts 343°
2026-05-05 23:39 10.70653 -75.64898 33852 ft 460 kts 343°
2026-05-05 23:39 10.76948 -75.66709 33853 ft 461 kts 343°
2026-05-05 23:40 10.83171 -75.68501 33853 ft 461 kts 343°
2026-05-05 23:40 10.89350 -75.70280 33853 ft 461 kts 343°
2026-05-05 23:41 10.95507 -75.72054 33852 ft 461 kts 343°
2026-05-05 23:41 11.01872 -75.73891 33850 ft 460 kts 343°
2026-05-05 23:42 11.08135 -75.75662 33849 ft 461 kts 344°
2026-05-05 23:42 11.14341 -75.77377 33851 ft 461 kts 344°
2026-05-05 23:43 11.20561 -75.79098 33856 ft 461 kts 344°
2026-05-05 23:43 11.26778 -75.80823 33861 ft 461 kts 343°
2026-05-05 23:44 11.32961 -75.82542 33862 ft 461 kts 343°
2026-05-05 23:44 11.39129 -75.84258 33863 ft 461 kts 343°
2026-05-05 23:45 11.45383 -75.85999 33871 ft 461 kts 343°
2026-05-05 23:45 11.51562 -75.87720 33875 ft 460 kts 343°
2026-05-05 23:46 11.57764 -75.89447 33878 ft 461 kts 343°
2026-05-05 23:46 11.63961 -75.91174 33876 ft 461 kts 343°
2026-05-05 23:47 11.70193 -75.92913 33873 ft 461 kts 343°
2026-05-05 23:47 11.76383 -75.94641 33875 ft 461 kts 343°
2026-05-05 23:48 11.82583 -75.96390 33875 ft 461 kts 343°
2026-05-05 23:48 11.88772 -75.98153 33877 ft 461 kts 343°
2026-05-05 23:49 11.94935 -75.99908 33876 ft 461 kts 343°
2026-05-05 23:49 12.01765 -76.01854 33875 ft 462 kts 343°
2026-05-05 23:50 12.07986 -76.03625 33874 ft 461 kts 343°
2026-05-05 23:50 12.14175 -76.05391 33876 ft 461 kts 343°
2026-05-05 23:51 12.20347 -76.07156 33874 ft 460 kts 343°
2026-05-05 23:51 12.26532 -76.08921 33881 ft 459 kts 343°
2026-05-05 23:52 12.32733 -76.10690 33879 ft 464 kts 343°
2026-05-05 23:52 12.38964 -76.12472 33879 ft 466 kts 343°
2026-05-05 23:53 12.45210 -76.14259 33881 ft 466 kts 343°
2026-05-05 23:53 12.51472 -76.16052 33884 ft 465 kts 343°
2026-05-05 23:54 12.57725 -76.17841 33884 ft 465 kts 343°
2026-05-05 23:54 12.64010 -76.19643 33885 ft 463 kts 343°
2026-05-05 23:55 12.70270 -76.21439 33885 ft 463 kts 343°
2026-05-05 23:55 12.76505 -76.23229 33887 ft 463 kts 343°
2026-05-05 23:56 12.82688 -76.25005 33890 ft 464 kts 343°
2026-05-05 23:56 12.88913 -76.26793 33891 ft 464 kts 343°
2026-05-05 23:57 12.95146 -76.28583 33900 ft 463 kts 343°
2026-05-05 23:57 13.01365 -76.30371 33908 ft 462 kts 343°
2026-05-05 23:58 13.07600 -76.32165 33915 ft 462 kts 343°
2026-05-05 23:58 13.13902 -76.33978 33919 ft 461 kts 343°
2026-05-05 23:59 13.20115 -76.35769 33920 ft 461 kts 343°
2026-05-05 23:59 13.26296 -76.37550 33922 ft 461 kts 343°
2026-05-06 00:00 13.32625 -76.39375 33925 ft 461 kts 343°
2026-05-06 00:00 13.38792 -76.41155 33925 ft 460 kts 343°
2026-05-06 00:01 13.45038 -76.42955 33927 ft 459 kts 343°
2026-05-06 00:01 13.51329 -76.44772 33927 ft 457 kts 343°
2026-05-06 00:02 13.57532 -76.46563 33930 ft 458 kts 343°
2026-05-06 00:02 13.63708 -76.48348 33928 ft 458 kts 343°
2026-05-06 00:03 13.69974 -76.50161 33937 ft 458 kts 343°
2026-05-06 00:03 13.76332 -76.52002 33941 ft 458 kts 343°
2026-05-06 00:04 13.82480 -76.53782 33943 ft 458 kts 343°
2026-05-06 00:04 13.88657 -76.55572 33945 ft 458 kts 343°
2026-05-06 00:05 13.97848 -76.58236 33946 ft 458 kts 343°
2026-05-06 00:06 14.04603 -76.60196 33944 ft 458 kts 343°
2026-05-06 00:06 14.10722 -76.61972 33944 ft 458 kts 343°
2026-05-06 00:07 14.16881 -76.63761 33944 ft 458 kts 343°
2026-05-06 00:07 14.23020 -76.65546 33944 ft 457 kts 343°
2026-05-06 00:08 14.29179 -76.67337 33943 ft 456 kts 343°
2026-05-06 00:08 14.35299 -76.69118 33943 ft 455 kts 343°
2026-05-06 00:09 14.41874 -76.71031 33945 ft 455 kts 343°
2026-05-06 00:09 14.48320 -76.72909 33945 ft 456 kts 343°
2026-05-06 00:10 14.54459 -76.74699 33946 ft 456 kts 343°
2026-05-06 00:10 14.60572 -76.76482 33947 ft 456 kts 343°
2026-05-06 00:11 14.66696 -76.78270 33948 ft 455 kts 343°
2026-05-06 00:11 14.72773 -76.80044 33951 ft 454 kts 343°
2026-05-06 00:12 14.78868 -76.81826 33953 ft 455 kts 343°
2026-05-06 00:12 14.84982 -76.83614 33954 ft 456 kts 343°
2026-05-06 00:13 14.91100 -76.85405 33954 ft 455 kts 343°
2026-05-06 00:13 14.97173 -76.87183 33956 ft 454 kts 343°
2026-05-06 00:14 15.03605 -76.88850 33956 ft 454 kts 346°
2026-05-06 00:14 15.09861 -76.90289 33962 ft 453 kts 346°
2026-05-06 00:15 15.16063 -76.91715 33962 ft 454 kts 346°
2026-05-06 00:15 15.22216 -76.93134 33963 ft 454 kts 346°
2026-05-06 00:16 15.28388 -76.94559 33964 ft 453 kts 346°
2026-05-06 00:16 15.34577 -76.95991 33963 ft 453 kts 346°
2026-05-06 00:17 15.40735 -76.97416 33965 ft 452 kts 346°
2026-05-06 00:17 15.46992 -76.98865 33959 ft 452 kts 346°
2026-05-06 00:18 15.53225 -77.00310 33952 ft 452 kts 346°
2026-05-06 00:18 15.59621 -77.01792 33949 ft 452 kts 347°
2026-05-06 00:19 15.65735 -77.03210 33952 ft 451 kts 347°
2026-05-06 00:19 15.72492 -77.04780 33953 ft 451 kts 347°
2026-05-06 00:20 15.79625 -77.06435 33956 ft 451 kts 347°
2026-05-06 00:20 15.85888 -77.07890 33958 ft 451 kts 346°
2026-05-06 00:21 15.92058 -77.09327 33960 ft 451 kts 347°
2026-05-06 00:21 15.98160 -77.10748 33962 ft 449 kts 347°
2026-05-06 00:22 16.04991 -77.12341 33972 ft 449 kts 347°
2026-05-06 00:22 16.11284 -77.13807 33988 ft 449 kts 347°
2026-05-06 00:23 16.17568 -77.15273 33992 ft 449 kts 347°
2026-05-06 00:23 16.23779 -77.16722 33979 ft 449 kts 347°
2026-05-06 00:24 16.30117 -77.18202 33982 ft 449 kts 347°
2026-05-06 00:24 16.36454 -77.19684 33985 ft 448 kts 347°
2026-05-06 00:25 16.42556 -77.21114 33983 ft 448 kts 347°
2026-05-06 00:25 16.48630 -77.22536 33986 ft 448 kts 347°
2026-05-06 00:26 16.54724 -77.23961 33984 ft 449 kts 347°
2026-05-06 00:26 16.60844 -77.25393 33987 ft 448 kts 347°
2026-05-06 00:27 16.66917 -77.26815 33991 ft 448 kts 347°
2026-05-06 00:27 16.73016 -77.28247 33989 ft 447 kts 347°
2026-05-06 00:28 16.79128 -77.29684 33989 ft 448 kts 347°
2026-05-06 00:28 16.85215 -77.31116 33991 ft 448 kts 347°
2026-05-06 00:29 16.91298 -77.32546 33989 ft 448 kts 347°
2026-05-06 00:29 16.97734 -77.34061 33992 ft 448 kts 347°
2026-05-06 00:30 17.03975 -77.35531 33992 ft 449 kts 347°
2026-05-06 00:30 17.10155 -77.36988 33996 ft 448 kts 347°
2026-05-06 00:31 17.17047 -77.38615 33998 ft 448 kts 347°
2026-05-06 00:31 17.23159 -77.40058 33999 ft 448 kts 347°
2026-05-06 00:32 17.29277 -77.41504 33999 ft 447 kts 347°
2026-05-06 00:32 17.35370 -77.42946 34001 ft 448 kts 347°
2026-05-06 00:33 17.41466 -77.44389 34002 ft 447 kts 346°
2026-05-06 00:33 17.47550 -77.45831 34003 ft 447 kts 347°
2026-05-06 00:34 17.53641 -77.47272 34003 ft 448 kts 347°
2026-05-06 00:34 17.59968 -77.48766 34004 ft 447 kts 347°
2026-05-06 00:35 17.66077 -77.50214 34003 ft 447 kts 347°
2026-05-06 00:35 17.72278 -77.51685 34005 ft 446 kts 347°
2026-05-06 00:36 17.78458 -77.53152 34008 ft 447 kts 347°
2026-05-06 00:36 17.84504 -77.54588 34022 ft 447 kts 347°
2026-05-06 00:37 17.90602 -77.56038 34036 ft 446 kts 347°
2026-05-06 00:37 17.97183 -77.57605 34050 ft 447 kts 346°
2026-05-06 00:38 18.03279 -77.59057 34061 ft 446 kts 347°
2026-05-06 00:38 18.09340 -77.60501 34068 ft 446 kts 347°
2026-05-06 00:39 18.15587 -77.61991 34070 ft 446 kts 346°
2026-05-06 00:39 18.22229 -77.63576 34077 ft 445 kts 346°
2026-05-06 00:40 18.28472 -77.65067 34078 ft 445 kts 346°
2026-05-06 00:40 18.34598 -77.66531 34066 ft 445 kts 346°
2026-05-06 00:41 18.40657 -77.67982 34049 ft 445 kts 346°
2026-05-06 00:41 18.46825 -77.69458 34038 ft 445 kts 346°
2026-05-06 00:42 18.52929 -77.70920 34030 ft 444 kts 346°
2026-05-06 00:42 18.59453 -77.72484 34025 ft 444 kts 346°
2026-05-06 00:43 18.65836 -77.74015 34025 ft 444 kts 346°
2026-05-06 00:43 18.72220 -77.75548 34020 ft 444 kts 346°
2026-05-06 00:44 18.78523 -77.77062 34015 ft 444 kts 346°
2026-05-06 00:44 18.84673 -77.78542 34009 ft 443 kts 346°
2026-05-06 00:45 18.91316 -77.80141 34006 ft 443 kts 346°
2026-05-06 00:45 18.97673 -77.81671 34005 ft 442 kts 346°
2026-05-06 00:46 19.04009 -77.83199 34002 ft 442 kts 346°
2026-05-06 00:46 19.10233 -77.84699 34004 ft 442 kts 346°
2026-05-06 00:47 19.16610 -77.86240 34005 ft 442 kts 346°
2026-05-06 00:47 19.23126 -77.87814 34001 ft 441 kts 346°
2026-05-06 00:48 19.29146 -77.89270 34003 ft 441 kts 346°
2026-05-06 00:48 19.35508 -77.90810 33999 ft 441 kts 346°
2026-05-06 00:49 19.41593 -77.92284 33999 ft 441 kts 346°
2026-05-06 00:49 19.47712 -77.93767 34008 ft 441 kts 346°
2026-05-06 00:50 19.53683 -77.95216 34013 ft 440 kts 346°
2026-05-06 00:50 19.59874 -77.96720 34013 ft 440 kts 346°
2026-05-06 00:51 19.66259 -77.98273 34011 ft 440 kts 346°
2026-05-06 00:51 19.72252 -77.99731 34012 ft 440 kts 346°
2026-05-06 00:52 19.78288 -78.01202 34017 ft 434 kts 346°
2026-05-06 00:52 19.84229 -78.02461 34017 ft 433 kts 349°
2026-05-06 00:53 19.90197 -78.03534 34016 ft 433 kts 349°
2026-05-06 00:53 19.96177 -78.04607 34021 ft 433 kts 349°
2026-05-06 00:54 20.02271 -78.05706 34021 ft 432 kts 349°
2026-05-06 00:54 20.08555 -78.06840 34020 ft 432 kts 349°
2026-05-06 00:55 20.14780 -78.07964 34019 ft 432 kts 349°
2026-05-06 00:55 20.20721 -78.09039 34019 ft 433 kts 349°
2026-05-06 00:56 20.26669 -78.10116 34020 ft 431 kts 349°
2026-05-06 00:56 20.32734 -78.11214 34018 ft 431 kts 349°
2026-05-06 00:57 20.38657 -78.12286 34019 ft 430 kts 349°
2026-05-06 00:57 20.44680 -78.13380 34019 ft 430 kts 349°
2026-05-06 00:58 20.50628 -78.14461 34018 ft 430 kts 349°
2026-05-06 00:58 20.56644 -78.15555 34020 ft 430 kts 349°
2026-05-06 00:59 20.62540 -78.16627 34025 ft 430 kts 349°
2026-05-06 00:59 20.68433 -78.17700 34031 ft 430 kts 349°
2026-05-06 01:00 20.74350 -78.18778 34031 ft 430 kts 349°
2026-05-06 01:00 20.80271 -78.19856 34033 ft 429 kts 349°
2026-05-06 01:01 20.86159 -78.20931 34033 ft 429 kts 349°
2026-05-06 01:01 20.92073 -78.22012 34035 ft 429 kts 349°
2026-05-06 01:02 20.97956 -78.23090 34035 ft 428 kts 349°
2026-05-06 01:02 21.03929 -78.24184 34037 ft 428 kts 349°
2026-05-06 01:03 21.09787 -78.25256 34037 ft 427 kts 349°
2026-05-06 01:03 21.15958 -78.26383 34039 ft 427 kts 349°
2026-05-06 01:04 21.21792 -78.27451 34042 ft 428 kts 349°
2026-05-06 01:04 21.27671 -78.28529 34045 ft 427 kts 349°
2026-05-06 01:05 21.33553 -78.29610 34042 ft 427 kts 349°
2026-05-06 01:05 21.39390 -78.30683 34047 ft 426 kts 348°
2026-05-06 01:06 21.45236 -78.31760 34044 ft 426 kts 348°
2026-05-06 01:06 21.51112 -78.32844 34045 ft 426 kts 348°
2026-05-06 01:07 21.56960 -78.33921 34046 ft 426 kts 348°
2026-05-06 01:07 21.62823 -78.35003 34045 ft 425 kts 348°
2026-05-06 01:08 21.68658 -78.36082 34047 ft 426 kts 348°
2026-05-06 01:08 21.75012 -78.37256 34046 ft 425 kts 348°
2026-05-06 01:09 21.80869 -78.38339 34048 ft 425 kts 348°
2026-05-06 01:09 21.86728 -78.39424 34046 ft 425 kts 348°
2026-05-06 01:10 21.92564 -78.40505 34045 ft 425 kts 348°
2026-05-06 01:10 21.98362 -78.41579 34041 ft 424 kts 348°
2026-05-06 01:11 22.04463 -78.42712 34041 ft 425 kts 348°
2026-05-06 01:11 22.10314 -78.43799 34044 ft 424 kts 348°
2026-05-06 01:12 22.16160 -78.44888 34042 ft 425 kts 348°
2026-05-06 01:12 22.22231 -78.46018 34038 ft 424 kts 348°
2026-05-06 01:13 22.28030 -78.47099 34043 ft 423 kts 348°
2026-05-06 01:13 22.33891 -78.48191 34044 ft 422 kts 348°
2026-05-06 01:14 22.42635 -78.49827 34043 ft 423 kts 348°
2026-05-06 01:14 22.48549 -78.50932 34043 ft 422 kts 348°
2026-05-06 01:15 22.54493 -78.52044 34036 ft 422 kts 348°
2026-05-06 01:15 22.60288 -78.53124 34043 ft 422 kts 348°
2026-05-06 01:16 22.66088 -78.54210 34036 ft 421 kts 348°
2026-05-06 01:16 22.71879 -78.55294 34035 ft 421 kts 347°
2026-05-06 01:17 22.77706 -78.56388 34039 ft 421 kts 348°
2026-05-06 01:17 22.83586 -78.57487 34039 ft 420 kts 348°
2026-05-06 01:18 22.89580 -78.58608 34038 ft 419 kts 347°
2026-05-06 01:18 22.95612 -78.59744 34035 ft 420 kts 347°
2026-05-06 01:19 23.01581 -78.60864 34030 ft 419 kts 347°
2026-05-06 01:19 23.08261 -78.62125 34025 ft 419 kts 347°
2026-05-06 01:20 23.14726 -78.63343 34031 ft 419 kts 347°
2026-05-06 01:20 23.20869 -78.64502 34028 ft 419 kts 347°
2026-05-06 01:21 23.26596 -78.65585 34027 ft 418 kts 347°
2026-05-06 01:21 23.32720 -78.66744 34026 ft 418 kts 347°
2026-05-06 01:22 23.39320 -78.67993 34023 ft 418 kts 347°
2026-05-06 01:22 23.45340 -78.69134 34020 ft 418 kts 347°
2026-05-06 01:23 23.51314 -78.70269 34024 ft 417 kts 347°
2026-05-06 01:23 23.57038 -78.71356 34024 ft 417 kts 347°
2026-05-06 01:24 23.62797 -78.72451 34028 ft 417 kts 347°
2026-05-06 01:24 23.65669 -78.72997 34026 ft 405 kts 347°
2026-05-06 01:24 23.68431 -78.73520 34029 ft 401 kts 347°
2026-05-06 01:25 23.73948 -78.74573 34030 ft 399 kts 346°
2026-05-06 01:25 23.79527 -78.75639 34029 ft 398 kts 347°
2026-05-06 01:26 23.85291 -78.76743 34033 ft 398 kts 347°
2026-05-06 01:26 23.90759 -78.77790 34036 ft 397 kts 346°
2026-05-06 01:27 23.96112 -78.79195 34040 ft 395 kts 341°
2026-05-06 01:27 24.01682 -78.81370 34039 ft 393 kts 335°
2026-05-06 01:28 24.06602 -78.83974 34040 ft 392 kts 330°
2026-05-06 01:28 24.11383 -78.87058 34041 ft 391 kts 328°
2026-05-06 01:29 24.16259 -78.90276 34039 ft 392 kts 328°
2026-05-06 01:29 24.21112 -78.93487 34035 ft 391 kts 328°
2026-05-06 01:30 24.23429 -78.95024 33769 ft 384 kts 328°
2026-05-06 01:30 24.25695 -78.96526 33488 ft 382 kts 328°
2026-05-06 01:30 24.27983 -78.98045 33202 ft 383 kts 328°
2026-05-06 01:30 24.30248 -78.99548 32933 ft 384 kts 328°
2026-05-06 01:31 24.32554 -79.01078 32667 ft 385 kts 328°
2026-05-06 01:31 24.34861 -79.02612 32402 ft 387 kts 327°
2026-05-06 01:31 24.37138 -79.04124 32140 ft 388 kts 327°
2026-05-06 01:31 24.39449 -79.05663 31875 ft 390 kts 327°
2026-05-06 01:32 24.41781 -79.07217 31613 ft 391 kts 327°
2026-05-06 01:32 24.44110 -79.08768 31350 ft 392 kts 327°
2026-05-06 01:32 24.46467 -79.10337 31084 ft 394 kts 327°
2026-05-06 01:32 24.48889 -79.11951 30813 ft 394 kts 327°
2026-05-06 01:33 24.51234 -79.13509 30552 ft 395 kts 327°
2026-05-06 01:33 24.53577 -79.15065 30292 ft 394 kts 327°
2026-05-06 01:33 24.56064 -79.16721 30015 ft 392 kts 327°
2026-05-06 01:33 24.58580 -79.18398 29735 ft 391 kts 327°
2026-05-06 01:34 24.60882 -79.19932 29478 ft 390 kts 327°
2026-05-06 01:34 24.63209 -79.21487 29217 ft 388 kts 327°
2026-05-06 01:34 24.65514 -79.23028 28958 ft 387 kts 327°
2026-05-06 01:34 24.67821 -79.24571 28699 ft 386 kts 327°
2026-05-06 01:35 24.70102 -79.26096 28443 ft 384 kts 327°
2026-05-06 01:35 24.72378 -79.27621 28177 ft 384 kts 327°
2026-05-06 01:35 24.74689 -79.29169 27889 ft 382 kts 327°
2026-05-06 01:35 24.77007 -79.30724 27585 ft 381 kts 327°
2026-05-06 01:36 24.79261 -79.32235 27243 ft 379 kts 327°
2026-05-06 01:36 24.81537 -79.33760 26836 ft 378 kts 327°
2026-05-06 01:36 24.83786 -79.35265 26429 ft 375 kts 327°
2026-05-06 01:36 24.86006 -79.36750 26036 ft 372 kts 327°
2026-05-06 01:37 24.88308 -79.38292 25620 ft 368 kts 327°
2026-05-06 01:37 24.90519 -79.39774 25221 ft 366 kts 327°
2026-05-06 01:37 24.92752 -79.41271 24816 ft 363 kts 327°
2026-05-06 01:37 24.94963 -79.42757 24409 ft 361 kts 327°
2026-05-06 01:38 24.97085 -79.44185 24016 ft 358 kts 327°
2026-05-06 01:38 24.99224 -79.45624 23622 ft 355 kts 327°
2026-05-06 01:38 25.01486 -79.47148 23201 ft 353 kts 327°
2026-05-06 01:38 25.03557 -79.48543 22816 ft 350 kts 326°
2026-05-06 01:39 25.05646 -79.49950 22417 ft 348 kts 326°
2026-05-06 01:39 25.07690 -79.51328 22050 ft 345 kts 326°
2026-05-06 01:39 25.09745 -79.52712 21666 ft 343 kts 326°
2026-05-06 01:39 25.11784 -79.54087 21207 ft 342 kts 327°
2026-05-06 01:40 25.13817 -79.55456 20652 ft 344 kts 327°
2026-05-06 01:40 25.16004 -79.56929 20086 ft 345 kts 327°
2026-05-06 01:40 25.18048 -79.58308 19600 ft 344 kts 327°
2026-05-06 01:40 25.20140 -79.59721 19122 ft 342 kts 327°
2026-05-06 01:41 25.22167 -79.61089 18665 ft 341 kts 327°
2026-05-06 01:41 25.24189 -79.62456 18217 ft 339 kts 327°
2026-05-06 01:41 25.26253 -79.63852 17758 ft 338 kts 327°
2026-05-06 01:41 25.28246 -79.65202 17314 ft 336 kts 327°
2026-05-06 01:42 25.30364 -79.66635 16843 ft 335 kts 327°
2026-05-06 01:42 25.32341 -79.67974 16404 ft 334 kts 327°
2026-05-06 01:42 25.34361 -79.69341 15958 ft 333 kts 327°
2026-05-06 01:42 25.36352 -79.70689 15520 ft 331 kts 326°
2026-05-06 01:43 25.38233 -79.72183 15071 ft 329 kts 318°
2026-05-06 01:43 25.39874 -79.74026 14813 ft 328 kts 308°
2026-05-06 01:43 25.41244 -79.76045 14835 ft 331 kts 305°
2026-05-06 01:43 25.42583 -79.78136 14856 ft 332 kts 304°
2026-05-06 01:44 25.43929 -79.80250 14870 ft 332 kts 304°
2026-05-06 01:44 25.45251 -79.82326 14614 ft 333 kts 305°
2026-05-06 01:44 25.46583 -79.84408 14152 ft 332 kts 305°
2026-05-06 01:44 25.47911 -79.86480 13709 ft 330 kts 305°
2026-05-06 01:45 25.49236 -79.88547 13280 ft 327 kts 305°
2026-05-06 01:45 25.50554 -79.90603 12847 ft 325 kts 305°
2026-05-06 01:45 25.51883 -79.92677 12412 ft 323 kts 305°
2026-05-06 01:45 25.53214 -79.94756 11966 ft 320 kts 304°
2026-05-06 01:46 25.54503 -79.96772 11536 ft 318 kts 304°
2026-05-06 01:46 25.55761 -79.98743 11273 ft 308 kts 304°
2026-05-06 01:46 25.56999 -80.00680 11147 ft 295 kts 304°
2026-05-06 01:46 25.58165 -80.02505 11021 ft 282 kts 304°
2026-05-06 01:47 25.59308 -80.04296 10935 ft 272 kts 304°
2026-05-06 01:47 25.60421 -80.06041 10560 ft 273 kts 304°
2026-05-06 01:47 25.61537 -80.07788 10193 ft 272 kts 304°
2026-05-06 01:47 25.62644 -80.09526 9840 ft 270 kts 304°
2026-05-06 01:48 25.63725 -80.11221 9504 ft 268 kts 304°
2026-05-06 01:48 25.64794 -80.12930 9175 ft 265 kts 302°
2026-05-06 01:48 25.65739 -80.14700 8899 ft 267 kts 297°
2026-05-06 01:48 25.66584 -80.16599 8918 ft 274 kts 295°
2026-05-06 01:49 25.67403 -80.18524 8940 ft 275 kts 295°
2026-05-06 01:49 25.68236 -80.20491 8954 ft 275 kts 295°
2026-05-06 01:49 25.69061 -80.22438 8628 ft 277 kts 295°
2026-05-06 01:49 25.69883 -80.24376 8254 ft 275 kts 295°
2026-05-06 01:50 25.70688 -80.26305 8012 ft 271 kts 291°
2026-05-06 01:50 25.71153 -80.28345 8003 ft 273 kts 276°
2026-05-06 01:50 25.71170 -80.30465 8005 ft 274 kts 268°
2026-05-06 01:50 25.71063 -80.32581 7987 ft 272 kts 267°
2026-05-06 01:51 25.70942 -80.34723 7500 ft 267 kts 267°
2026-05-06 01:51 25.70833 -80.36783 6729 ft 271 kts 268°
2026-05-06 01:51 25.70729 -80.38882 5994 ft 271 kts 267°
2026-05-06 01:51 25.70627 -80.40947 5418 ft 265 kts 268°
2026-05-06 01:52 25.70526 -80.43003 4658 ft 268 kts 268°
2026-05-06 01:52 25.70396 -80.45032 4196 ft 258 kts 266°
2026-05-06 01:52 25.70241 -80.47034 3705 ft 252 kts 266°
2026-05-06 01:52 25.70077 -80.49008 3228 ft 249 kts 266°
2026-05-06 01:53 25.69914 -80.50963 3004 ft 240 kts 266°
2026-05-06 01:53 25.69966 -80.52942 2990 ft 247 kts 288°
2026-05-06 01:53 25.70867 -80.54613 2996 ft 244 kts 320°
2026-05-06 01:53 25.72344 -80.55501 3004 ft 240 kts 346°
2026-05-06 01:54 25.74158 -80.55738 2992 ft 237 kts 11°
2026-05-06 01:54 25.75662 -80.54961 2989 ft 219 kts 43°
2026-05-06 01:54 25.76692 -80.53715 3000 ft 213 kts 51°
2026-05-06 01:54 25.77482 -80.52255 2997 ft 214 kts 71°
2026-05-06 01:55 25.77792 -80.50627 3003 ft 214 kts 82°
2026-05-06 01:55 25.77913 -80.48951 2958 ft 209 kts 86°
2026-05-06 01:55 25.77978 -80.47337 2735 ft 206 kts 86°
2026-05-06 01:55 25.78031 -80.45769 2480 ft 197 kts 86°
2026-05-06 01:56 25.78085 -80.44305 2298 ft 178 kts 86°
2026-05-06 01:56 25.78137 -80.42969 2059 ft 164 kts 85°
2026-05-06 01:56 25.78186 -80.41765 1830 ft 150 kts 85°
2026-05-06 01:56 25.78231 -80.40657 1609 ft 136 kts 85°
2026-05-06 01:57 25.78270 -80.39645 1403 ft 126 kts 85°
2026-05-06 01:57 25.78308 -80.38666 1252 ft 126 kts 84°
2026-05-06 01:57 25.78359 -80.37677 1109 ft 126 kts 84°
2026-05-06 01:57 25.78399 -80.36710 972 ft 126 kts 86°
2026-05-06 01:58 25.78432 -80.35736 814 ft 125 kts 84°
2026-05-06 01:58 25.78477 -80.34766 646 ft 125 kts 85°
2026-05-06 01:58 25.78521 -80.33799 489 ft 125 kts 86°
2026-05-06 01:58 25.78557 -80.32833 328 ft 124 kts 86°
2026-05-06 01:59 25.78597 -80.31876 173 ft 123 kts 86°
2026-05-06 01:59 25.78636 -80.30920 29 ft 121 kts 89°
2026-05-06 01:59 25.78670 -80.30100 13 ft 83 kts 87°
2026-05-06 01:59 25.78692 -80.29602 13 ft 54 kts 86°
2026-05-06 02:00 25.78707 -80.29220 14 ft 44 kts 87°
2026-05-06 02:00 25.78723 -80.28902 13 ft 37 kts 85°
2026-05-06 02:00 25.78795 -80.28702 13 ft 23 kts 48°
2026-05-06 02:00 25.78825 -80.28669 13 ft 0 kts 43°
2026-05-06 02:01 25.78826 -80.28667 13 ft 1 kts 43°
2026-05-06 02:02 25.78843 -80.28651 13 ft 5 kts 43°
2026-05-06 02:02 25.78874 -80.28605 13 ft 9 kts 73°
2026-05-06 02:02 25.78879 -80.28519 13 ft 13 kts 88°
2026-05-06 02:02 25.78883 -80.28405 13 ft 16 kts 87°
2026-05-06 02:03 25.78890 -80.28278 13 ft 16 kts 87°
2026-05-06 02:03 25.78897 -80.28146 13 ft 17 kts 86°
2026-05-06 02:03 25.78904 -80.28017 13 ft 16 kts 105°
2026-05-06 02:03 25.78859 -80.27894 13 ft 17 kts 98°
2026-05-06 02:04 25.78875 -80.27761 13 ft 17 kts 85°
2026-05-06 02:04 25.78885 -80.27626 13 ft 17 kts 82°
2026-05-06 02:04 25.78910 -80.27492 13 ft 17 kts 78°
2026-05-06 02:04 25.78923 -80.27357 13 ft 17 kts 86°
2026-05-06 02:05 25.78961 -80.27254 13 ft 14 kts 47°
2026-05-06 02:05 25.79043 -80.27215 13 ft 13 kts 360°
2026-05-06 02:05 25.79126 -80.27217 13 ft 10 kts 358°
2026-05-06 02:05 25.79201 -80.27221 13 ft 10 kts 358°
2026-05-06 02:06 25.79233 -80.27246 13 ft 5 kts 279°
2026-05-06 02:06 25.79239 -80.27288 13 ft 3 kts 281°
2026-05-06 02:06 25.79241 -80.27303 13 ft 0 kts 281°
2026-05-06 02:06 25.79242 -80.27306 13 ft 0 kts 280°